TimeEST,TemperatureF,Dew PointF,Humidity,Sea Level PressureIn,VisibilityMPH,Wind Direction,Wind SpeedMPH,Gust SpeedMPH,PrecipitationIn,Events,Conditions,WindDirDegrees,DateUTC
12:08 AM,44.6,42.8,93,29.59,10.0,WSW,4.6,-,0.00,,Overcast,240,2013-02-20 05:08:00
12:34 AM,42.8,41.0,93,29.58,10.0,WSW,5.8,-,0.00,,Overcast,250,2013-02-20 05:34:00
12:53 AM,43.0,41.0,93,29.57,10.0,WSW,4.6,-,0.00,,Overcast,250,2013-02-20 05:53:00
1:53 AM,42.1,39.0,89,29.57,10.0,WSW,9.2,-,N/A,,Overcast,250,2013-02-20 06:53:00
2:26 AM,41.0,37.4,87,29.57,10.0,WSW,8.1,-,N/A,,Overcast,250,2013-02-20 07:26:00
2:53 AM,39.9,37.0,89,29.57,10.0,WSW,9.2,-,N/A,,Mostly Cloudy,250,2013-02-20 07:53:00
3:53 AM,37.9,34.0,86,29.57,10.0,West,11.5,-,N/A,,Overcast,260,2013-02-20 08:53:00
4:53 AM,37.0,30.9,79,29.59,10.0,West,15.0,23.0,N/A,,Overcast,280,2013-02-20 09:53:00
5:24 AM,35.6,28.4,75,29.60,10.0,West,10.4,-,N/A,,Overcast,280,2013-02-20 10:24:00
5:31 AM,35.6,28.4,75,29.60,10.0,West,13.8,19.6,N/A,,Overcast,280,2013-02-20 10:31:00
5:53 AM,34.0,27.0,75,29.62,10.0,West,10.4,-,N/A,,Mostly Cloudy,280,2013-02-20 10:53:00
6:53 AM,34.0,25.0,70,29.64,10.0,West,12.7,-,N/A,,Mostly Cloudy,280,2013-02-20 11:53:00
7:53 AM,33.8,19.4,56,29.66,10.0,West,20.7,32.2,N/A,,Mostly Cloudy,280,2013-02-20 12:53:00
8:53 AM,33.1,19.0,56,29.69,10.0,West,17.3,24.2,N/A,,Mostly Cloudy,280,2013-02-20 13:53:00
9:53 AM,35.1,17.1,48,29.69,10.0,West,18.4,25.3,N/A,,Scattered Clouds,270,2013-02-20 14:53:00
10:53 AM,36.0,16.0,44,29.68,10.0,West,18.4,26.5,N/A,,Clear,270,2013-02-20 15:53:00
11:53 AM,36.0,15.1,43,29.67,10.0,West,20.7,32.2,N/A,,Mostly Cloudy,270,2013-02-20 16:53:00
12:53 PM,36.0,14.0,41,29.66,10.0,West,23.0,28.8,N/A,,Overcast,270,2013-02-20 17:53:00
1:53 PM,35.6,12.2,38,29.65,10.0,West,18.4,28.8,N/A,,Scattered Clouds,280,2013-02-20 18:53:00
2:53 PM,34.0,10.9,38,29.66,10.0,West,20.7,29.9,N/A,,Scattered Clouds,260,2013-02-20 19:53:00
3:53 PM,34.0,10.0,37,29.68,10.0,WNW,23.0,31.1,N/A,,Mostly Cloudy,290,2013-02-20 20:53:00
4:53 PM,30.9,10.9,43,29.70,10.0,West,15.0,23.0,N/A,,Scattered Clouds,260,2013-02-20 21:53:00
5:53 PM,30.0,10.0,43,29.72,10.0,West,12.7,26.5,N/A,,Partly Cloudy,280,2013-02-20 22:53:00
6:53 PM,28.9,9.0,43,29.74,10.0,WNW,13.8,27.6,N/A,,Partly Cloudy,290,2013-02-20 23:53:00
7:53 PM,28.9,8.1,41,29.75,10.0,West,23.0,33.4,N/A,,Clear,280,2013-02-21 00:53:00
8:53 PM,28.0,9.0,45,29.77,10.0,West,17.3,24.2,N/A,,Partly Cloudy,280,2013-02-21 01:53:00
9:53 PM,27.0,10.0,49,29.79,10.0,West,13.8,26.5,N/A,,Scattered Clouds,280,2013-02-21 02:53:00
10:53 PM,27.0,10.9,51,29.80,10.0,West,16.1,24.2,N/A,,Clear,280,2013-02-21 03:53:00
11:53 PM,27.0,10.9,51,29.80,10.0,WNW,13.8,21.9,N/A,,Clear,290,2013-02-21 04:53:00